www.pogodaiklimat.ru

Погода и климат >> Архив погоды >> Киргизия >> Яны-Жер


ПОГОДА в Яны-Жере

  • Прогноз погоды в Яны-Жере
  • Монитор погоды в Яны-Жере

АРХИВ ПОГОДЫ в Яны-Жере

Время (UTC), дата Ветер
(напр.,м/с)
 
Видим.   Явления Облачность Т
(С)
Тd
(С)
f
(%)
Тe
(С)
Тes
(С)
Комфортность P
(гПа)
Po
(гПа)
Тmin
(С)
Tmax
(С)
R
(мм)
R24
(мм)
S
(см)
12 10.08 штиль 0 20 км ясно +32.2 +11.4 28 +32 +36 жарко 1007.6 943.0
15 10.08 В 2 20 км ясно +25.1 +3.4 24 +24 +24 комфорт 1008.4 942.1 +33.0
18 10.08 В 6 н/о ясно +25.0 +0.2 20 +24 +24 комфорт 1008.3 941.8 +33.0
21 10.08 В 4 н/о ясно +21.7 +2.7 29 +22 +22 комфорт 1007.1 940.1
00 11.08 В 3 50 км ясно +20.6 +2.5 30 +21 +21 комфорт 1005.6 938.4
03 11.08 штиль 0 20 км ясно +23.1 +9.0 41 +25 +32 комфорт 1004.5 938.1 +18.8
06 11.08 штиль 0 20 км 1/0
[Ci fib]
+32.1 +9.4 25 +31 +52 опасность
солнечного
удара
1001.2 936.9 +18.8
12 11.08 штиль 0 20 км 1/0
[Ci fib]
+35.0 +12.6 26 +35 +39 очень
жарко
998.9 935.4
15 11.08 штиль 0 20 км ясно +25.6 +10.2 38 +26 +26 жарко 1000.6 935.0 +36.2
18 11.08 штиль 0 н/о ясно +17.5 +13.0 75 +18 +18 1002.8 935.4 +36.2
21 11.08 В 1 н/о н/о +15.5 +11.4 77 +16 +16 935.3
00 12.08 штиль 0 20 км ясно +14.5 +11.3 81 +14 +14 1004.6 936.3
03 12.08 штиль 0 20 км ясно +24.0 +12.9 50 +26 +34 жарко 1003.0 937.0 +14.4
06 12.08 штиль 0 20 км 1/1 1000 м
[Cu med, cong]
+31.4 +12.8 32 +32 +52 опасность
солнечного
удара
1001.8 937.4 +14.4
09 12.08 штиль 0 20 км 8/1 1000 м
[Cu med, cong Ac trans Ci sp]
+35.6 +12.2 24 +35 +46 очень
жарко
1001.0 937.4
12 12.08 штиль 0 20 км 8/3 1000 м
[Cu hum Ac trans Ci sp]
+34.2 +14.5 31 +36 +37 душно 1000.7 937.0
15 12.08 Ю 1 н/о 4/0
[Ac trans]
+27.3 +11.7 38 +28 +28 жарко 1003.7 938.2 +35.8
18 12.08 штиль 0 н/о 3/0
[Ac trans]
+20.5 +9.9 51 +22 +22 комфорт 1006.8 939.7 +35.8
21 12.08 штиль 0 н/о ясно +16.4 +9.5 64 +16 +16 1007.4 939.3
00 13.08 штиль 0 20 км ясно +14.2 +9.9 75 +14 +14 1008.7 940.0
03 13.08 штиль 0 20 км 1/0
[Ac trans]
+24.7 +11.7 44 +26 +33 жарко 1005.7 939.6 +14.2
06 13.08 З 1 20 км 3/0
[Ac trans]
+30.0 +6.8 23 +29 +44 жарко 1003.6 938.7 +14.2
09 13.08 З 4 20 км 4/1 1000 м
[Cu hum Ac trans Ci fib]
+32.8 +7.4 21 +31 +38 жарко 1002.4 938.1
12 13.08 З 1 20 км 4/3 1000 м
[Cu hum Ac trans]
+32.0 +12.1 30 +32 +35 жарко 1002.4 938.1
15 13.08 штиль 0 н/о 3/3 1000 м
[Sc]
+23.0 +12.3 51 +26 +26 жарко 1005.5 939.1 +33.0
18 13.08 штиль 0 н/о 6/0
[Ac trans Ci sp]
+22.0 +10.7 49 +24 +24 комфорт 1007.1 940.2 +33.0
21 13.08 З 1 н/о 4/0
[Ac trans]
+20.1 +9.4 50 +22 +22 комфорт 1008.1 940.8
00 14.08 З 1 20 км 10/4 600 м
[Sc Ac trans Ci sp]
+17.5 +8.4 55 +19 +19 1009.2 941.2
03 14.08 штиль 0 8000 м 9/4 50 м
[Cb calv Ac trans Ci fib]
+20.1 +12.7 62 +22 +24 комфорт 1009.0 941.7 +15.1
06 14.08 штиль 0 20 км 4/0
[Ac trans Ci fib]
+27.5 +11.5 37 +28 +45 жарко 1006.3 940.8 +15.1
09 14.08 СЗ 2 20 км 6/0
[Ac trans Ci sp]
+30.3 +11.3 31 +31 +40 жарко 1004.6 939.7
12 14.08 СЗ 5 20 км 10/8 600 м
[Cb calv Ac trans Ci sp]
+25.6 +6.4 29 +25 +25 комфорт 1006.8 940.7
15 14.08 штиль 0 н/о 10/8 600 м
[Cb calv Ac trans Ci sp]
+20.2 +10.9 55 +22 +22 комфорт 1010.7 943.3 +30.6
18 14.08 штиль 0 н/о 10/0
[Ac trans Ci sp]
+18.8 +12.0 65 +19 +19 1013.3 945.4 +30.6
21 14.08 штиль 0 н/о 10/10 600 м
[Cb calv]
+16.9 +11.8 72 +17 +17 1015.2 946.7
00 15.08 штиль 0 20 км {ливн. осадки} 10/10 600 м
[Cb calv]
+15.2 +13.0 87 +15 +15 1013.8 945.1
03 15.08 В 3 20 км 6/3 1000 м
[Cu med, cong Ac trans Ci fib]
+18.4 +11.4 64 +19 +21 1012.9 944.9 +15.0 0.3
06 15.08 штиль 0 20 км 9/3 600 м
[Cb calv Ac trans Ci sp]
+25.0 +9.8 38 +26 +34 жарко 1010.8 944.4 +15.0
09 15.08 штиль 0 20 км 8/4 600 м
[Cb calv Ac trans Ci sp]
+27.1 +7.3 28 +27 +34 жарко 1009.1 943.2
12 15.08 штиль 0 20 км 8/4 600 м
[Cu med, cong Ac trans Ci sp]
+27.0 +6.2 27 +26 +28 жарко 1009.1 943.1
15 15.08 штиль 0 н/о 10/6 600 м
[Cb calv Ac trans Ci sp]
+22.1 +9.5 45 +24 +24 комфорт 1009.5 944.2 +28.0
18 15.08 штиль 0 н/о 6/0
[Ac trans Ci sp]
+17.6 +7.0 50 +18 +18 1012.2 944.1 +28.0
21 15.08 штиль 0 н/о 9/0
[Ac trans Ci sp]
+16.3 +8.6 60 +16 +16 1013.5 944.9
00 16.08 штиль 0 20 км 10/6 600 м
[Cb calv Ac trans Ci sp]
+12.8 +9.7 81 +12 +12 1013.6 944.2
03 16.08 штиль 0 20 км 10/8 600 м
[Cb calv Ac trans Ci sp]
+16.8 +10.4 66 +17 +17 1012.4 944.0 +12.4
06 16.08 штиль 0 20 км 10/4 600 м
[Cb calv Ac trans Ci sp]
+21.9 +10.2 47 +24 +30 комфорт 1010.5 943.4 +12.4
09 16.08 штиль 0 20 км 8/4 1000 м
[Cu med, cong Ac trans Ci sp]
+25.7 +7.4 31 +26 +33 жарко 1009.2 943.0
12 16.08 штиль 0 20 км 10/4 600 м
[Cb calv Ac trans Ci sp]
+25.6 +12.7 45 +27 +28 жарко 1008.7 942.6
15 16.08 штиль 0 н/о 10/10 600 м
[Cb calv]
+21.1 +10.3 50 +23 +23 комфорт 1010.9 943.6 +27.3
03 17.08 штиль 0 20 км 10/4 600 м
[Cb calv Ac trans Ci sp]
+18.7 +12.4 67 +19 +22 1013.2 945.3 +14.1

 

Местоположение метеостанции Яны-Жер (Чуйская область, Киргизия): широта 43.00 долгота 74.00 высота над уровнем моря 750 м.

В архиве по умолчанию представлена погода в Яны-Жере за последнюю неделю. Архивные данные за месяц целиком и за предыдущие месяцы, начиная с января 2011 года, Вы можете получить, выбрав интересующий диапазон дат из раскрывающегося списка и нажав кнопку "Ввод!".


*Определитесь, кто Вы:
робот инопланетянин человек

Внимание! Время в таблицах - всемирное. Для получения местного времени необходимо прибавить поправку, которая равна 5 ч.

Смотрите также архив погоды в соседних городах и на ближайших метеорологических станциях:

Погода в Кара-Балте (Чуйская область, Киргизия) (27 км)
Погода в Бериктасе (Жамбылская область, Казахстан) (44 км)
Погода в Бишкеке (город Бишкек, Киргизия) (46 км)
Погода в Тео-Ашуу (Чуйская область, Киргизия) (56 км)
Погода в Байтике (Чуйская область, Киргизия) (56 км)
Погода в Мерке (Жамбылская область, Казахстан) (69 км)
Погода в Иссык-Ате (город Бишкек, Киргизия) (73 км)
Погода в Толе Би (Жамбылская область, Казахстан) (80 км)
Погода в Кордае (Жамбылская область, Казахстан) (88 км)
Погода в Сусамыре (Чуйская область, Киргизия) (95 км)

Пояснения к столбцам:

Ветер - указаны скорость ветра в м/с - средняя за 10 мин, порывы в срок и между сроками (в фигурных скобках) и направление, откуда дует ветер: С - северный, СВ - северо-восточный, В - восточный, ЮВ - юго-восточный, Ю - южный, ЮЗ - юго-западный, З - западный, СЗ - северо-западный.
Видимость - горизонтальная дальность видимости в метрах или километрах. При видимости от 1 до 10 км при отсутствии осадков обычно наблюдается дымка, при ухудшении видимости до 1 км и менее - туман. В сухую погоду видимость может ухудшаться дымом, пылью или мглою.
Явления - указаны атмосферные явления, наблюдавшиеся в срок или в последний час перед сроком; фигурными скобками обозначены явления, наблюдавшиеся между сроками (за 1-3 часа до срока); квадратными скобками обозначены град или гололедные отложения с указанием их диаметра в мм.
Облачность - указаны через наклонную черту общая и нижняя облачность в баллах и высота нижней границы облаков в метрах; квадратными скобками обозначены формы облаков: Ci - перистые, Cs - перисто-слоистые, Cc - перисто-кучевые, Ac - высококучевые, As - высокослоистые, Sc - слоисто-кучевые, Ns - слоисто-дождевые, Cu - кучевые, Cb - кучево-дождевые. Подробнее классификацию облаков см. в Атласе облаков (PDF).
T - Температура воздуха - температура, измеренная на высоте 2 м над землей.
Td - Температура точки росы - температура, при понижении до которой содержащийся в воздухе водяной пар достигнет насыщения.
f - Относительная влажность воздуха - влажноcть воздуха, измеренная на высоте 2 м над землей.
Te - Эффективная температура - температура, которую ощущает одетый по сезону человек в тени. Характеристика душности погоды. При расчете учитывается влияние влажности воздуха и скорости ветра на теплоощущения человека.
Tes - Эффективная температура на солнце - температура, которую ощущает человек, с поправкой на солнечный нагрев. Характеристика знойности погоды. Зависит от высоты солнца над горизонтом, облачности и скорости ветра. Ночью, в пасмурную погоду, а также при ветре 12 м/с и более поправка равна нулю.
P - Атмосферное давление - приведенное к уровню моря атмосферное давление.
Po - Атмосферное давление - измеренное на уровне метеостанции атмосферное давление.
Tmin - Минимальная температура - минимум температуры воздуха на высоте 2 м над землей.
Tmax - Максимальная температура - максимум температуры воздуха на высоте 2 м над землей.
R - Количество осадков - Количество выпавших осадков за период времени, мм. При наведении курсора мыши на число - период времени, за который выпало указанное количество осадков.
R24 - Количество осадков - Количество выпавших осадков за 24 часа, мм.
S - Снежный покров - Высота снежного покрова, см. При наведении курсора мыши на число - состояние снежного покрова и степень покрытия местности в баллах.